Home > Time Zones > World Clock > Weather > Spain > Ceuta > Past weeks

Flag for Spain Weather past 2 weeks in Ceuta, Ceuta, Spain

Now
68 °F

Passing clouds.


Feels Like: 68 °F
Forecast: 66 / 74 °F
Wind: 12 mph from East

Location: Gibraltar Airport

Current Time: Oct 23, 2014 at 7:40:55 AM

Latest Report: Oct 23, 2014 at 6:50 AM


Visibility: N/A

Pressure: 30.15 "Hg

Humidity: 88%

Dew point: 64 °F

Location of CeutaLocation

Historic Weather in Ceuta — Graph

°F

Ceuta temperature yesterday

Maximum temperature yesterday: 91 °F (at 4:50 PM)
Minimum temperature yesterday: 63 °F (at 6:50 AM)
Average temperature yesterday: 74 °F

Past Weeks' High & Low Weather Summary

 TemperatureHumidityPressure
High91 °F (Oct 22, 4:50 PM)100% (Oct 11, 4:50 AM)30.27 "Hg (Oct 11, 4:50 AM)
Low61 °F (Oct 13, 7:50 AM)17% (Oct 22, 4:50 PM)29.80 "Hg (Oct 11, 4:50 PM)
Average70 °F78%30.02 "Hg
* Reported Oct 8 6:50 AM — Oct 23 6:50 AM, Ceuta, Weather by CustomWeather, © 2014

Note: Actual official high and low records may vary slightly from our data, if they occured in-between our weather recording intervals... More about our weather records

Advertising

Ceuta weather history for previous 24 hours

 ConditionsComfort  
Time TempWeatherWind HumidityBarometerVisibility
6:50 AM
Oct 23
68 °FPassing clouds.12 mph88%30.15 "HgN/A
5:50 AM68 °FClear.14 mph88%30.15 "HgN/A
4:50 AM68 °FClear.20 mph88%30.15 "HgN/A
3:50 AM68 °FClear.22 mph88%30.15 "HgN/A
2:50 AM68 °FPassing clouds.15 mph88%30.15 "HgN/A
1:50 AM68 °FPassing clouds.13 mph88%30.18 "HgN/A
12:50 AM70 °FClear.16 mph83%30.18 "HgN/A
11:50 PM
Oct 22
68 °FPassing clouds.14 mph94%30.18 "Hg6 mi
10:50 PM70 °FPartly cloudy.16 mph88%30.15 "Hg6 mi
9:50 PM70 °FClear.10 mph83%30.15 "Hg10 mi
8:50 PM72 °FClear.2 mph73%30.09 "Hg10 mi
7:50 PM73 °FSunny.6 mph69%30.09 "Hg10 mi
6:50 PM88 °FSunny.3 mph27%30.09 "Hg10 mi
5:50 PM90 °FSunny.7 mph18%30.09 "Hg10 mi
4:50 PM91 °FSunny.12 mph17%30.09 "Hg10 mi
3:50 PM90 °FSunny.10 mph18%30.09 "Hg10 mi
2:50 PM88 °FSunny.8 mph21%30.12 "Hg10 mi
1:50 PM86 °FSunny.5 mph35%30.15 "Hg10 mi
12:50 PM86 °FSunny.5 mph27%30.18 "Hg10 mi
11:50 AM77 °FSunny.5 mph44%30.21 "Hg10 mi
10:50 AM68 °FSunny.6 mph69%30.21 "Hg10 mi
9:50 AM66 °FSunny.5 mph78%30.21 "Hg10 mi
8:50 AM64 °FClear.1 mph83%30.21 "Hg10 mi
7:50 AM64 °FClear.3 mph83%30.21 "Hg10 mi
Weather by CustomWeather, © 2014

See weather overviewHow to use our weather pages